Location: Huberhof
(49.2050°N, 7.4980°E)
Time: 04:15:03
(UTC+00:00)

Cosmos 1503 Rocket - Pass Details

Date: 29 October 2020
Orbit: 752 x 791 km, 74.0° (Epoch: 25 November)

Event Time Altitude Azimuth Distance (km) Brightness Sun altitude
Rises 17:14:37 0° 340° (NNW) 3,229 7.4 -10.5°
Reaches altitude 10° 17:17:05 10° 346° (NNW) 2,305 6.6 -10.9°
Maximum altitude 17:22:06 45° 60° (ENE) 1,038 4.3 -11.7°
Drops below altitude 10° 17:27:08 10° 133° (SE) 2,314 6.1 -12.6°
Sets 17:29:37 0° 139° (SE) 3,244 6.9 -13.0°
